Hourly Data Report for February 22, 2017

All times are specified in Local Standard Time (LST). Add 1 hour to adjust for Daylight Saving Time where and when it is observed.

TORONTO CITY
ONTARIO

43°40'00.000" N
79°24'00.000" W
112.50 m
6158355
71508
XTO

Download Data

Hourly Data (February 2017)
Hourly Data Report for February 22, 2017
TIME Temp Definition
°C
Dew Point Definition
°C
Rel Hum Definition
%
Wind Dir Definition
10's deg

Wind Spd Definition
km/h
Visibility Definition
km
Stn Press Definition
kPa
Hmdx Definition


Wind Chill Definition


Weather Definition


00:00 5.1 2.3 82 LegendMM LegendMM   100.02     LegendNANA
01:00 5.2 1.4 77 LegendMM LegendMM   100.00     LegendNANA
02:00 5.1 0.8 74 LegendMM LegendMM   99.98     LegendNANA
03:00 5.0 1.4 77 LegendMM LegendMM   99.97     LegendNANA
04:00 5.1 2.2 82 LegendMM LegendMM   99.92     LegendNANA
05:00 5.0 3.6 90 LegendMM LegendMM   99.96     LegendNANA
06:00 5.2 4.2 93 LegendMM LegendMM   99.95     LegendNANA
07:00 5.7 4.5 92 LegendMM LegendMM   99.91     LegendNANA
08:00 6.0 5.0 93 LegendMM LegendMM   99.90     LegendNANA
09:00 6.4 5.6 95 LegendMM LegendMM   99.87     LegendNANA
10:00 5.9 5.2 95 LegendMM LegendMM   99.85     LegendNANA
11:00 5.4 4.8 96 LegendMM LegendMM   99.82     LegendNANA
12:00 6.4 5.8 96 LegendMM LegendMM   99.78     LegendNANA
13:00 7.1 5.4 89 LegendMM LegendMM   99.72     LegendNANA
14:00 7.9 5.5 85 LegendMM LegendMM   99.61     LegendNANA
15:00 7.3 4.6 83 LegendMM LegendMM   99.58     LegendNANA
16:00 7.0 4.8 86 LegendMM LegendMM   99.52     LegendNANA
17:00 6.8 4.4 85 LegendMM LegendMM   99.48     LegendNANA
18:00 7.1 4.7 85 LegendMM LegendMM   99.45     LegendNANA
19:00 7.5 4.8 83 LegendMM LegendMM   99.46     LegendNANA
20:00 8.1 5.1 81 LegendMM LegendMM   99.45     LegendNANA
21:00 8.6 6.1 84 LegendMM LegendMM   99.41     LegendNANA
22:00 8.7 6.6 87 LegendMM LegendMM   99.37     LegendNANA
23:00 9.8 8.3 90 LegendMM LegendMM   99.29     LegendNANA

Notes on Data Quality.

Legend

  • E = Estimated
  • M = Missing
  • NA = Not Available
Date modified: